Wind_Speed
30 29 28 27 26 25 23 22 22 22 21 21 22 21 21 23 24 23 24 26 26 26 27 27 28 26 23 23 23 24 27 34 43 51 52 45 38 38 40 40 40 40 40 38 38 38 38 38 36 34 33 32 32 32 33 33 33 33 33 32 32 32 32 32 31 31 31 31 30
29 29 28 28 26 25 23 21 21 21 21 21 22 22 23 24 25 25 25 28 27 27 27 27 29 29 28 29 29 30 31 36 43 50 51 43 37 38 41 41 41 41 40 39 38 38 38 37 35 33 32 31 31 31 31 32 33 33 32 32 32 31 31 32 32 32 32 32 31
29 28 27 27 26 25 22 21 21 21 22 21 22 23 25 25 26 26 27 29 28 27 27 27 30 33 33 33 32 32 35 38 43 49 50 42 38 40 42 41 42 41 41 40 40 39 38 37 35 32 31 31 31 31 31 32 33 33 32 32 32 31 31 31 32 33 33 32 31
29 28 27 27 26 25 23 22 22 22 22 21 22 23 25 26 27 27 28 30 28 27 27 28 31 33 35 33 32 33 35 38 44 49 49 43 40 41 42 41 42 42 41 41 40 39 38 37 34 32 31 32 32 32 32 33 33 32 32 33 32 31 31 31 32 32 32 31 31
28 28 27 27 27 26 25 24 23 23 23 22 22 23 25 26 26 27 28 28 28 28 28 29 30 33 34 32 31 31 33 37 44 49 49 44 41 41 42 42 42 42 42 42 41 40 39 37 34 32 32 33 33 33 33 33 33 33 32 33 32 31 31 31 31 32 32 31 31
28 28 27 27 27 26 25 24 25 24 24 23 23 24 25 25 26 26 27 28 29 30 30 30 30 31 32 32 30 29 31 36 44 48 48 43 41 41 42 42 42 42 42 42 42 41 40 38 34 32 32 32 32 33 34 34 34 33 32 32 31 31 31 31 31 31 31 30 30
28 27 27 27 26 26 25 24 24 25 24 24 25 25 26 26 26 27 27 29 30 30 31 30 29 30 31 33 31 29 31 38 46 49 47 42 40 41 42 42 42 42 42 42 42 42 40 38 34 32 32 33 32 32 34 35 34 34 33 32 32 31 31 31 31 31 30 30 30
28 27 27 27 26 25 24 24 25 25 25 24 26 26 27 27 28 28 28 29 29 30 31 31 30 29 31 32 32 32 34 41 47 49 46 41 41 41 41 42 42 42 42 43 42 41 40 38 34 32 32 33 32 32 34 35 35 34 33 33 32 32 31 31 31 30 30 30 30
26 26 27 27 26 25 25 25 25 26 25 25 26 27 27 28 29 29 29 29 29 31 32 32 31 30 31 32 34 36 40 46 49 48 44 40 40 41 42 42 42 42 41 42 42 41 40 37 33 33 33 33 32 33 34 35 35 35 34 33 32 32 31 31 31 30 30 30 30
25 25 25 26 26 25 25 25 26 27 27 26 27 27 27 28 30 31 30 30 30 31 32 32 32 31 31 33 35 40 44 47 48 46 42 40 39 41 41 41 41 41 41 41 41 41 39 36 34 33 34 34 34 34 35 35 35 35 34 33 33 32 31 31 31 31 30 31 30
25 25 25 25 25 25 25 25 26 27 27 26 26 26 26 27 30 31 31 30 30 30 31 32 33 32 32 34 37 42 46 46 45 42 39 39 39 40 41 41 41 41 41 41 40 40 38 36 34 34 34 34 34 35 35 36 36 36 35 33 32 32 31 31 32 31 31 31 31
25 25 25 25 25 25 25 25 25 26 26 26 25 25 25 26 28 30 30 29 28 28 29 31 33 34 35 36 39 44 47 45 41 38 37 39 39 40 40 40 40 41 41 40 40 39 37 36 35 34 35 34 34 35 36 36 36 36 35 33 32 32 32 32 32 32 32 32 32
24 24 23 24 24 24 24 24 24 25 25 24 24 24 24 25 28 29 29 28 27 27 28 31 35 37 38 39 42 45 45 41 38 36 37 37 38 39 39 39 40 40 40 40 40 39 37 36 35 35 35 35 34 35 36 36 36 35 34 33 33 32 32 33 33 32 32 32 32
24 23 22 22 23 23 23 23 22 23 23 24 24 24 24 26 27 29 29 28 27 27 29 34 38 40 41 42 42 42 41 38 36 36 37 37 37 37 38 38 39 39 39 38 39 39 37 36 36 36 37 36 35 35 36 37 36 36 35 34 34 33 33 33 33 33 32 32 32
22 22 21 22 22 22 22 22 21 21 22 23 23 23 24 25 27 28 29 29 29 30 32 36 39 41 43 42 41 40 39 37 36 36 37 37 37 37 37 38 38 38 38 37 38 38 37 36 36 37 37 37 36 36 37 37 37 36 36 35 35 35 34 34 34 33 33 32 32
21 21 21 21 21 21 21 21 20 21 22 23 23 24 24 25 26 28 31 32 32 32 34 36 37 39 42 44 42 40 39 38 36 36 37 37 37 37 37 37 38 38 38 37 37 37 37 36 36 36 37 37 37 37 37 38 37 37 36 36 36 35 35 34 34 34 33 33 33
20 20 21 21 21 21 21 21 21 21 22 23 23 25 26 26 26 29 32 34 33 32 33 34 34 35 39 42 43 42 40 38 36 36 36 37 37 38 38 37 37 38 38 37 36 36 35 35 35 35 36 37 37 37 37 37 37 36 36 36 36 35 35 35 35 34 34 34 34
20 20 21 22 23 23 23 23 22 22 22 23 24 26 27 27 27 29 32 34 32 31 31 31 32 33 36 39 40 40 39 36 35 36 37 37 38 38 38 37 37 38 37 37 36 36 35 34 34 34 35 35 36 36 36 36 35 35 35 35 35 35 35 35 35 35 34 34 33
20 21 22 23 24 24 24 25 24 24 23 23 24 26 27 27 28 30 32 33 32 31 31 30 31 33 36 38 38 37 36 34 34 35 36 36 37 37 36 36 36 37 36 36 36 35 34 33 33 33 33 33 34 34 34 34 33 32 32 32 32 32 32 32 32 32 32 32 31
20 21 22 24 25 25 26 26 25 25 24 23 24 26 27 27 30 32 33 33 32 32 32 32 33 35 37 37 36 35 34 34 34 34 34 34 35 35 35 35 35 35 35 34 34 34 33 32 32 32 31 32 31 31 30 30 29 28 28 27 27 27 27 27 27 27 27 26 26
21 21 23 24 26 26 27 26 25 25 24 24 24 26 27 28 30 32 33 33 33 32 32 34 35 36 36 35 33 32 32 32 32 32 32 32 33 33 33 33 33 33 33 33 33 33 32 32 31 31 30 30 29 29 28 27 26 25 24 24 23 23 23 22 22 22 21 21 21
21 22 23 26 26 27 26 25 24 24 24 25 25 26 27 28 30 31 33 34 33 32 32 34 36 36 34 33 31 31 31 30 31 31 31 31 31 31 31 31 32 31 31 31 31 31 31 31 30 29 29 28 27 26 26 25 24 23 22 22 21 20 20 20 20 19 19 19 19
22 22 24 26 26 26 25 23 22 23 25 26 27 27 27 27 29 30 31 32 31 31 32 35 35 34 33 31 31 31 31 30 30 29 29 29 29 29 29 29 29 29 29 29 30 30 30 30 29 28 27 26 25 24 23 23 22 22 21 20 19 19 19 19 19 19 19 20 20
21 21 22 24 25 25 23 22 21 22 25 27 30 29 27 27 28 29 29 30 29 30 32 34 34 33 32 31 31 32 32 31 30 30 29 29 28 27 27 26 26 27 27 28 29 29 29 29 28 27 26 25 24 22 21 21 20 20 19 19 18 18 19 19 19 20 20 21 22
21 21 21 23 25 24 22 21 21 22 25 29 31 30 28 27 28 28 28 27 27 29 31 33 34 33 32 30 29 30 31 31 31 31 29 28 27 26 26 25 26 26 27 28 29 29 29 28 27 26 24 23 22 21 20 19 19 19 18 18 19 19 20 20 21 22 22 22 23
20 21 22 23 24 24 22 20 21 23 28 32 32 29 27 27 27 28 27 25 25 25 27 29 31 31 30 27 26 26 26 27 28 30 30 29 28 27 26 26 26 27 28 29 30 29 29 28 27 25 24 23 21 20 19 18 18 17 17 17 17 18 19 19 20 21 21 21 21
20 21 23 24 25 24 22 21 22 26 31 34 32 28 26 25 27 27 26 24 22 22 23 26 28 28 27 25 24 23 22 23 25 28 30 29 28 27 28 28 28 29 30 31 32 31 30 29 28 26 25 24 22 20 18 17 16 15 15 15 15 16 16 16 16 16 16 18 20
21 22 23 24 24 23 23 22 24 30 34 36 35 30 26 28 28 25 23 22 22 22 24 25 26 26 26 25 24 24 24 25 27 28 29 29 28 28 27 28 28 28 29 31 32 32 31 30 29 28 26 24 21 20 18 16 14 14 14 13 13 14 14 14 14 15 16 17 19
20 22 24 24 23 22 22 23 28 33 36 34 33 26 23 27 26 24 25 26 26 27 27 28 28 28 27 28 28 29 29 29 30 30 30 29 28 27 26 25 25 25 26 28 29 30 30 29 27 26 24 21 21 20 18 17 15 14 13 11 11 12 12 12 12 13 14 15 16
20 22 24 23 21 21 22 24 28 30 28 24 22 24 27 28 27 27 28 28 28 29 30 30 31 31 31 31 31 32 32 31 31 31 30 29 28 26 24 23 22 21 22 24 25 26 26 26 25 24 21 19 20 19 18 17 16 15 13 12 10 10 10 10 10 11 13 14 15
21 22 23 22 20 20 22 23 23 22 23 27 31 33 33 31 30 29 28 29 29 30 31 33 34 33 32 31 32 33 32 32 31 31 31 30 29 28 27 25 23 21 21 22 24 24 25 24 24 22 21 19 19 18 17 16 16 14 13 11 10 9 8 8 9 10 11 12 12
21 21 21 20 20 21 23 23 23 26 29 33 35 35 34 33 31 30 30 30 31 32 33 34 35 34 32 32 32 33 32 32 31 31 31 31 30 30 28 27 25 23 21 22 23 23 24 23 23 22 20 19 18 17 16 16 15 13 12 11 10 9 9 9 9 9 9 8 8
23 23 22 22 23 24 26 27 28 30 32 33 34 35 35 34 33 32 31 30 31 32 33 34 34 34 33 33 33 33 33 32 32 32 31 31 31 30 29 27 26 23 21 21 21 22 22 22 22 21 20 19 18 17 16 15 14 13 12 12 11 10 9 9 9 8 8 7 7
28 28 28 28 29 29 30 30 31 31 32 33 33 34 34 34 33 32 30 29 30 31 33 34 34 34 34 34 34 34 33 32 32 32 31 31 30 30 29 28 26 23 21 20 20 20 20 20 21 20 20 20 18 17 17 16 15 15 14 14 13 12 11 10 9 8 7 7 6
32 32 32 32 32 31 31 31 32 32 33 33 32 32 33 33 33 31 30 30 32 33 34 35 35 35 35 34 34 34 33 32 32 31 31 31 30 31 30 29 27 24 21 20 19 19 19 19 19 19 20 20 19 19 18 18 18 18 18 17 16 15 13 12 11 10 9 8 8
35 35 34 34 34 33 33 33 33 33 33 32 32 31 31 31 31 30 31 33 35 36 36 35 35 35 35 34 33 32 32 32 32 31 31 31 31 32 32 30 28 25 22 20 19 18 17 16 16 17 18 19 20 20 20 21 21 21 20 20 20 19 17 15 14 13 12 12 11
36 37 37 36 36 36 36 35 35 34 32 31 31 31 31 30 29 29 31 34 36 36 35 35 35 35 35 34 33 32 31 31 31 31 31 31 32 33 32 30 28 25 22 20 19 17 16 15 14 14 16 19 21 22 22 22 23 23 22 23 22 22 20 19 18 17 16 14 13
33 35 36 37 37 38 38 37 36 34 32 30 30 30 30 30 28 27 29 33 36 36 35 35 35 35 34 34 34 32 31 31 32 32 32 32 32 33 32 31 29 26 23 20 19 18 16 15 14 14 15 19 22 23 23 24 24 24 24 25 25 24 23 22 21 20 19 17 16
29 30 32 34 36 37 38 38 37 35 33 31 30 30 30 30 28 28 30 33 35 36 36 35 34 33 34 34 34 33 32 32 32 33 33 32 32 32 32 31 29 26 23 21 20 18 18 17 16 16 18 20 23 24 25 25 26 26 26 25 26 26 26 24 24 23 22 20 18
30 30 31 32 33 35 36 37 37 36 34 33 31 31 31 31 31 31 33 35 36 37 36 35 34 33 33 34 34 34 33 32 32 33 33 33 32 32 31 31 29 27 24 22 21 21 20 20 20 20 21 22 24 25 26 26 27 27 26 25 25 26 26 26 25 25 24 22 21
32 32 32 32 32 34 35 35 35 36 35 35 33 32 32 33 34 34 34 35 36 36 35 34 34 34 34 34 34 35 35 34 34 33 33 33 32 31 31 30 29 27 25 24 23 23 22 22 22 22 22 23 24 25 26 27 27 27 26 25 25 25 26 26 26 26 25 24 23
Wind_Direction
170 172 175 177 179 181 182 185 186 187 187 189 191 192 190 189 187 181 176 174 176 179 179 179 176 176 181 191 200 204 206 206 203 199 196 191 180 171 169 169 169 169 168 166 165 164 165 167 168 169 172 174 175 177 178 180 180 180 180 181 182 183 184 184 185 186 188 190 191
169 172 175 176 178 180 182 183 186 189 191 193 193 192 191 189 186 183 181 180 181 182 180 178 175 174 178 189 198 201 202 203 201 198 195 191 180 172 170 170 170 169 168 166 165 165 166 167 168 170 172 174 176 178 179 181 181 181 181 181 183 184 185 185 187 188 190 191 192
169 172 174 175 177 178 180 183 185 189 191 193 194 194 193 190 189 187 186 185 185 183 179 175 174 173 176 183 188 192 195 198 198 197 194 189 179 173 171 170 170 169 168 167 166 166 167 168 169 171 173 176 179 180 180 181 182 181 181 181 183 184 185 187 188 190 191 192 193
169 171 173 175 176 178 179 182 186 189 192 193 193 193 193 191 190 189 188 188 187 184 180 177 176 176 176 177 180 184 187 191 195 195 193 188 179 173 171 170 170 169 168 167 167 168 168 169 170 172 176 179 180 181 181 182 182 182 182 182 183 185 186 188 190 191 192 193 194
170 172 174 176 178 179 181 184 187 189 190 191 192 192 192 190 189 188 188 188 188 187 185 183 180 179 178 177 176 178 181 185 191 193 191 186 178 172 170 170 169 168 168 167 167 168 169 170 172 175 179 181 181 181 182 182 182 183 183 184 185 187 188 190 191 193 194 195 196
171 173 176 177 179 180 183 185 188 188 188 190 191 191 191 189 187 186 186 187 189 190 190 188 186 183 180 177 175 175 178 183 189 190 187 184 176 171 169 168 167 166 166 167 167 168 168 170 173 176 179 179 180 181 182 182 182 183 184 185 187 188 190 191 193 194 196 197 198
172 174 176 178 179 181 182 185 187 188 188 189 191 191 189 187 187 186 186 187 189 191 191 190 189 187 182 177 173 173 179 187 190 188 185 180 173 168 167 167 166 166 166 166 167 168 169 170 172 175 177 178 180 181 181 182 182 183 185 187 189 190 192 193 194 196 197 199 200
173 175 176 178 180 181 183 185 186 186 187 190 191 190 188 187 187 187 188 188 189 190 191 191 190 189 185 177 172 173 182 191 191 188 183 178 170 166 165 165 165 165 166 166 167 168 169 171 172 174 176 177 179 180 181 182 183 184 186 188 190 192 194 195 196 198 199 201 202
172 175 177 179 180 182 184 186 187 187 189 191 192 190 188 186 187 188 189 190 191 191 190 189 189 188 185 179 173 176 185 192 190 186 182 176 168 165 165 164 164 165 166 167 168 168 169 171 172 174 176 177 179 180 181 182 183 184 186 189 191 193 195 197 198 200 202 203 204
172 174 177 178 180 182 185 187 189 190 191 192 192 190 187 185 186 188 190 191 192 191 190 189 187 186 184 180 175 178 185 187 185 183 180 174 167 164 164 165 165 165 166 167 168 169 170 171 172 174 177 179 179 180 181 183 184 185 187 189 192 194 196 199 200 202 203 205 206
173 175 177 179 181 183 186 187 190 191 192 192 192 192 190 186 184 186 188 190 190 190 190 189 186 183 181 179 175 175 178 181 180 179 177 172 167 165 165 165 166 166 166 167 169 170 171 171 173 174 176 178 179 180 182 183 185 186 188 190 192 195 197 200 202 203 205 206 208
174 176 178 180 182 184 186 187 190 191 192 193 195 196 194 186 180 181 183 185 186 187 187 185 181 178 176 175 172 172 175 178 178 177 174 170 168 167 166 166 167 167 167 168 169 170 172 173 173 174 175 177 179 181 182 184 186 187 188 190 193 195 198 200 202 204 206 207 209
175 176 178 180 182 184 186 188 190 190 192 196 199 199 192 182 175 175 178 180 181 181 179 176 173 170 168 168 168 171 176 179 178 174 170 168 168 168 167 167 168 168 168 169 171 172 173 174 174 175 175 177 179 181 183 184 186 187 189 191 193 195 198 201 202 204 206 208 209
177 177 178 179 181 184 186 188 190 191 194 198 201 197 187 177 172 171 172 174 174 173 170 167 165 163 162 163 167 173 179 180 175 171 169 169 169 168 168 168 168 168 169 170 172 174 175 175 176 176 177 178 180 182 184 185 187 188 190 191 193 196 199 201 202 204 206 208 210
177 177 177 178 180 183 186 188 190 193 197 201 200 192 182 175 170 169 169 169 168 168 167 166 164 161 160 163 171 178 180 177 172 169 168 169 169 168 168 168 168 169 169 171 173 175 176 177 177 178 179 179 181 183 185 187 189 190 192 193 195 198 199 201 203 204 206 208 210
176 176 176 178 179 182 186 188 191 194 199 202 197 188 179 174 172 171 170 168 168 169 170 170 169 165 163 167 174 177 177 175 172 169 169 169 169 169 169 168 168 169 170 171 173 176 177 178 178 179 180 181 183 185 187 188 190 192 194 196 198 199 201 202 204 205 207 209 211
174 175 176 178 179 183 186 189 192 195 199 199 192 183 178 176 175 175 175 174 174 175 176 177 174 169 166 167 170 173 175 175 173 170 168 169 169 170 169 169 169 169 170 171 173 175 176 177 179 180 181 182 184 186 188 190 191 193 195 197 199 201 202 204 205 206 208 210 212
174 175 177 178 180 184 187 190 192 195 196 193 185 180 177 177 177 178 179 181 182 183 182 180 175 169 164 163 166 170 173 174 171 169 168 169 170 171 170 170 170 170 171 172 174 174 175 176 177 179 181 183 185 187 189 191 192 194 196 198 201 202 204 206 207 208 209 210 212
175 176 177 178 182 185 188 191 193 194 193 187 181 178 178 178 178 178 180 184 186 185 182 177 170 164 161 161 164 169 172 171 168 168 168 169 170 170 170 170 170 171 172 174 175 175 175 175 176 177 179 182 183 185 188 190 191 193 195 197 200 202 203 205 206 207 208 210 211
179 179 179 179 183 187 190 191 193 193 191 184 179 177 177 176 176 178 181 185 185 182 177 171 163 159 158 160 164 168 170 168 166 165 167 168 169 170 170 171 171 172 174 175 175 175 175 175 175 176 178 179 181 182 184 186 187 188 190 191 194 196 197 199 201 203 205 206 208
182 182 181 182 185 188 190 192 192 191 187 182 179 177 174 173 174 178 182 184 181 176 169 162 156 154 155 159 162 164 165 164 163 164 165 166 168 169 171 171 172 173 175 176 176 176 176 176 176 177 178 179 179 179 180 181 182 183 184 185 187 189 191 193 196 198 201 203 205
185 184 183 184 186 189 191 191 190 187 183 181 180 178 174 172 174 177 179 179 175 168 160 154 152 152 153 155 156 157 158 158 160 161 162 164 166 168 170 171 172 173 175 176 177 177 177 177 178 178 179 179 180 180 181 181 182 183 185 186 189 191 194 196 200 203 206 209 212
186 185 183 183 186 189 190 189 185 183 182 183 181 177 174 173 174 173 172 171 168 161 153 149 150 151 151 149 149 149 151 153 155 156 158 161 163 165 167 169 171 173 174 176 177 178 178 178 179 180 181 182 182 183 185 186 187 189 191 193 196 200 203 207 210 214 217 220 223
185 183 181 181 184 187 187 185 181 179 180 180 178 176 174 173 173 171 167 165 161 153 147 147 149 150 149 147 145 144 144 145 148 149 151 154 156 159 162 164 168 170 173 176 178 179 180 180 180 182 184 185 187 189 191 193 196 198 202 205 209 213 217 221 224 226 229 231 233
183 181 179 179 182 184 184 181 179 178 177 176 176 175 173 170 169 168 165 159 151 145 143 144 147 149 151 149 145 143 143 142 141 141 143 145 148 153 157 162 166 170 174 177 180 182 184 184 184 185 187 190 193 196 199 203 206 211 215 219 223 227 230 232 234 235 237 238 239
179 178 177 177 179 180 179 177 177 176 174 174 175 174 169 164 163 164 163 156 149 145 144 144 144 147 150 150 150 151 150 147 142 139 138 141 145 150 155 161 166 171 176 180 183 186 188 189 191 192 193 194 196 199 202 206 211 215 220 225 229 232 234 236 239 241 241 241 240
174 174 173 174 175 176 175 173 170 170 171 174 174 169 162 155 156 156 154 150 147 145 143 143 143 145 147 149 150 149 148 146 142 138 138 141 144 148 152 159 166 172 177 182 185 188 191 193 194 196 197 197 198 199 201 206 211 216 220 224 227 230 231 232 233 233 233 234 236
168 166 167 169 171 173 173 171 165 165 170 173 171 165 155 151 148 140 130 126 127 128 128 130 133 136 138 139 138 137 137 138 136 136 138 141 142 143 146 151 158 166 173 179 183 186 189 191 193 195 197 197 196 198 200 202 207 212 216 218 220 222 222 222 222 224 225 228 232
161 159 159 163 166 169 170 167 163 164 167 169 166 155 141 138 129 117 106 103 106 109 112 117 123 127 129 128 129 129 129 130 131 132 133 135 135 135 137 142 148 155 163 171 176 180 182 185 188 190 191 190 192 193 193 193 194 194 195 194 197 200 201 204 208 214 220 226 230
153 150 152 158 161 164 165 164 163 162 157 147 131 116 110 108 104 101 100 100 102 105 111 117 122 123 122 121 123 122 121 122 124 127 128 127 125 124 127 134 142 150 158 165 169 172 176 180 183 184 181 179 182 183 181 180 179 176 172 169 171 174 180 190 204 217 227 232 234
144 143 147 151 154 158 160 159 152 138 120 108 102 102 103 102 101 102 104 105 106 109 114 119 120 119 117 117 117 116 115 117 119 122 122 121 119 118 119 123 130 140 151 160 164 168 171 174 177 177 176 176 176 173 169 166 163 158 152 148 148 152 162 177 199 215 221 223 224
140 139 140 143 145 147 146 139 122 109 103 102 103 104 105 105 105 105 107 108 110 111 113 115 116 115 113 112 111 111 112 113 114 116 118 118 116 114 114 114 118 126 139 151 157 161 164 167 170 172 173 173 169 164 159 155 150 143 137 133 131 134 141 150 160 171 181 186 193
126 124 122 121 123 125 123 117 110 106 104 103 103 103 104 106 107 106 106 107 109 110 110 111 110 109 108 107 107 107 107 108 110 112 115 116 116 114 110 107 108 114 125 137 145 151 156 160 163 167 169 168 162 155 149 145 138 130 124 120 118 120 124 129 134 141 148 157 167
115 111 110 109 110 110 111 110 109 107 104 102 101 102 104 106 107 106 106 106 106 106 105 105 104 104 105 106 107 106 105 106 108 110 113 115 117 114 109 103 103 107 114 122 130 138 144 150 154 158 160 158 151 143 137 132 125 118 112 110 108 108 109 112 114 118 124 133 144
117 113 111 110 109 108 107 107 107 105 103 101 100 102 104 106 107 108 108 106 104 101 99 99 100 101 102 103 105 105 104 104 105 107 110 113 115 112 107 103 103 105 108 112 117 123 129 136 142 146 147 143 135 129 125 121 115 110 106 104 101 99 98 100 101 104 109 116 123
121 119 116 113 111 109 107 106 105 104 103 102 102 102 104 105 107 109 109 108 104 99 96 96 97 98 98 98 99 100 101 102 103 104 106 110 111 109 105 103 104 106 107 108 110 114 118 124 131 135 135 130 124 120 117 113 108 104 102 99 95 93 93 93 95 98 103 108 113
124 123 121 118 115 113 111 108 106 104 104 104 105 105 105 105 106 108 109 107 103 100 97 97 96 96 96 96 96 96 99 101 102 102 103 105 106 106 104 103 105 107 109 110 112 113 116 119 124 128 128 124 120 116 113 108 105 101 98 95 93 91 91 92 93 95 98 103 108
122 123 123 121 119 117 115 112 109 107 106 105 105 106 106 105 105 105 106 106 103 101 99 98 96 96 97 97 96 96 96 98 100 100 100 100 102 104 104 103 104 107 110 113 115 115 117 119 121 124 125 122 119 116 112 108 104 100 97 95 93 92 91 92 91 92 94 99 105
113 116 118 118 118 117 116 114 112 110 108 107 105 105 104 103 101 101 102 103 103 102 99 97 96 97 98 98 98 95 93 93 95 96 97 96 98 101 102 101 102 106 111 114 117 118 119 120 122 124 124 123 120 117 114 109 105 101 98 96 94 92 91 91 90 91 92 96 102
103 105 107 109 111 112 112 112 112 111 110 108 105 104 103 102 101 101 101 101 101 101 99 97 97 98 99 99 98 95 92 90 90 91 93 94 96 99 100 100 102 105 109 113 116 118 119 121 122 123 123 121 119 117 115 111 106 102 99 97 95 92 90 90 90 90 91 94 99
102 101 101 102 104 106 107 108 110 110 109 107 106 104 104 104 104 102 101 100 100 100 99 98 98 99 99 98 98 96 93 89 88 89 92 94 95 96 98 99 101 103 106 111 114 117 118 119 120 121 120 119 118 117 115 113 107 102 99 98 96 94 91 90 90 90 90 92 94
Height
622 625 627 630 632 634 636 638 639 640 642 644 646 648 650 652 654 655 656 658 660 661 663 664 664 665 669 674 679 683 687 691 693 693 694 694 692 693 695 698 700 702 705 707 709 711 714 717 720 724 726 729 731 734 736 738 740 742 744 746 748 750 752 754 755 757 759 761 763
622 625 627 629 631 633 635 637 638 640 641 643 645 647 648 650 652 653 655 656 658 660 662 663 663 665 669 675 681 684 687 690 692 693 694 693 693 693 695 697 700 701 704 706 708 711 714 717 720 723 726 729 732 734 736 738 740 741 743 745 747 749 751 753 755 756 758 760 762
621 624 626 628 630 632 634 636 637 638 640 642 644 645 647 649 650 652 654 655 657 659 661 663 664 665 669 676 680 683 684 687 690 692 693 692 692 693 695 697 699 701 703 705 708 710 713 716 720 723 726 729 731 733 735 737 739 740 742 744 746 749 750 752 754 756 758 760 761
621 623 626 627 629 631 633 634 636 637 639 641 643 644 646 647 649 650 652 654 656 658 660 662 664 666 669 673 676 678 680 683 687 691 692 692 692 692 694 696 698 700 703 705 707 710 713 716 719 723 725 728 731 733 735 736 738 740 741 743 745 748 750 751 754 755 757 759 760
621 623 625 626 628 630 631 633 634 636 638 640 641 643 645 646 648 649 651 653 655 657 659 661 664 666 668 669 671 674 676 680 686 691 693 692 691 692 693 695 697 700 702 705 707 710 713 716 720 723 726 728 730 732 734 735 737 739 741 743 745 747 749 751 753 755 756 757 759
620 622 624 626 627 629 631 632 633 635 636 638 640 642 643 645 646 647 649 651 653 655 657 660 663 665 665 665 667 669 673 679 686 690 691 691 690 691 693 695 696 699 701 704 707 709 712 716 720 723 726 728 730 731 733 735 736 739 741 743 745 746 748 750 752 754 755 756 758
620 621 623 625 627 628 630 631 632 633 635 637 639 640 642 643 644 645 647 648 650 653 655 658 660 663 663 662 662 665 671 680 687 690 690 689 689 690 691 694 696 698 701 704 706 709 712 715 719 722 725 727 729 730 732 734 735 737 740 742 744 745 747 749 751 752 754 755 757
619 621 623 625 626 628 629 630 631 632 634 636 637 639 640 641 643 644 645 647 649 651 653 655 658 660 660 659 658 662 670 681 687 689 689 687 687 688 690 693 695 698 700 703 705 708 711 715 718 721 724 726 728 730 731 732 734 736 738 740 742 745 746 748 750 751 753 754 755
620 621 623 624 626 627 628 629 630 631 633 635 636 638 640 640 642 643 645 646 647 649 651 653 655 658 659 658 656 661 671 681 686 687 687 685 686 688 690 692 695 697 700 702 705 707 711 714 717 720 722 724 726 728 730 731 733 735 737 739 741 744 745 747 749 750 752 753 754
619 621 623 624 626 626 627 628 629 630 631 634 636 637 639 640 641 642 644 645 646 648 650 651 654 656 658 659 658 663 672 680 685 686 685 685 685 687 689 691 694 696 699 701 704 707 710 713 716 718 720 723 725 726 729 730 732 734 736 738 740 742 744 746 748 749 750 752 753
619 621 622 624 625 626 627 628 629 630 631 633 635 637 638 639 640 641 643 644 645 647 648 650 653 655 658 660 660 665 674 681 684 684 684 685 685 686 688 690 693 695 698 700 704 706 709 712 715 717 720 722 724 725 727 730 731 733 735 737 740 741 743 745 746 748 749 750 752
619 620 622 623 624 625 626 627 628 629 631 633 635 636 637 638 639 640 642 643 645 646 648 650 652 655 657 660 663 668 676 681 682 682 682 683 684 686 688 690 692 695 697 700 703 706 709 711 714 716 719 721 723 725 726 729 730 732 735 737 739 740 742 744 745 747 748 750 751
618 620 621 623 624 625 626 626 627 629 630 632 634 636 637 637 638 639 641 643 644 646 647 650 652 654 657 661 665 671 677 680 680 680 680 682 684 686 688 690 692 695 697 700 702 705 708 710 713 715 717 720 722 724 725 727 730 731 734 736 738 739 741 742 744 745 747 749 750
618 620 621 622 623 624 625 626 627 628 630 632 634 635 636 637 638 639 641 643 645 646 648 650 652 654 656 661 667 673 676 677 677 678 679 681 684 686 688 690 692 694 697 700 702 705 707 710 712 714 716 718 720 723 725 727 729 730 732 735 736 738 739 741 742 744 746 747 749
618 619 621 621 623 624 625 626 627 628 630 632 634 635 635 636 637 639 641 644 645 647 649 651 652 653 655 660 667 673 675 675 675 677 679 681 684 685 688 690 692 694 697 699 702 704 707 709 711 714 715 718 720 722 724 726 728 730 731 733 735 736 738 740 741 743 745 746 747
618 619 620 621 622 623 624 625 626 628 630 631 632 633 634 636 637 640 642 645 647 649 650 652 652 653 655 660 666 671 674 675 675 677 679 681 683 685 687 690 691 694 696 699 701 704 706 709 711 713 715 717 719 721 724 725 727 729 731 732 734 735 737 739 740 742 743 745 746
617 618 619 620 621 622 624 625 626 628 629 630 631 632 633 636 638 640 642 644 647 649 651 652 653 653 655 659 665 670 673 675 676 677 678 680 683 685 687 689 691 693 695 698 701 704 706 709 711 713 715 717 719 721 723 725 727 729 730 732 734 735 737 738 740 741 742 744 745
616 618 619 620 621 622 623 624 626 627 628 629 630 631 633 636 638 640 642 644 646 648 650 651 653 654 655 659 665 669 672 674 675 676 678 680 682 685 686 688 690 693 695 698 700 703 706 709 711 713 715 717 719 721 723 725 726 728 730 731 733 735 736 737 739 740 741 742 744
616 617 618 619 620 621 623 624 625 626 627 628 629 631 633 635 637 639 641 643 645 647 648 650 652 653 656 659 664 669 671 672 674 675 678 680 682 685 686 688 690 693 695 698 701 703 706 708 711 713 715 717 719 721 723 725 726 728 730 731 733 734 735 737 738 739 740 742 743
616 617 618 619 620 621 622 624 625 626 627 628 629 630 632 634 636 639 640 642 644 645 647 649 650 653 655 659 663 667 669 671 673 675 678 680 683 685 687 689 691 694 696 699 701 704 706 709 711 713 715 717 719 721 723 725 726 728 730 731 732 734 735 736 738 739 740 742 743
616 617 617 618 620 621 622 623 624 626 626 627 628 630 631 633 636 638 640 641 643 645 646 647 649 651 654 658 662 665 668 670 673 676 678 681 683 685 687 689 692 694 697 699 702 704 706 709 711 713 715 717 719 721 723 724 726 728 729 731 732 734 735 736 737 739 740 741 742
616 617 617 618 620 621 622 623 624 625 626 627 628 629 631 632 635 636 638 640 642 644 645 645 647 650 654 657 660 664 667 670 673 676 679 681 684 686 688 690 692 695 697 700 702 705 707 709 711 713 715 717 719 720 722 724 725 727 729 730 732 733 734 735 737 738 739 740 741
616 617 617 618 620 621 622 623 624 625 626 627 628 629 630 632 634 636 638 640 642 642 643 645 647 650 654 657 660 663 667 670 674 677 679 682 685 687 689 691 694 696 698 700 703 705 707 709 711 713 715 717 719 720 722 724 725 727 728 730 731 732 734 735 736 737 739 740 741
616 616 617 618 620 621 622 623 624 625 626 626 628 629 631 632 634 636 638 640 641 641 643 645 648 651 654 657 660 663 667 670 674 677 680 683 685 688 690 693 695 697 699 701 703 705 707 709 711 713 715 717 719 721 722 724 725 727 728 730 731 732 733 734 735 737 738 739 740
616 616 617 618 620 621 622 623 624 624 626 627 628 630 631 633 635 636 638 640 641 642 643 646 649 652 656 659 662 665 668 671 674 677 680 683 686 689 691 693 695 698 700 702 704 706 708 710 712 714 716 718 720 721 723 724 725 727 728 729 730 732 733 734 735 736 737 738 739
616 616 617 618 620 621 622 623 624 625 626 628 630 631 632 634 636 637 639 640 642 643 645 648 652 655 659 662 665 669 671 674 676 678 680 683 686 689 691 694 696 698 700 702 704 706 709 711 713 715 716 718 720 721 723 724 725 726 728 729 730 731 732 733 734 735 736 737 738
616 616 617 618 620 621 622 624 625 626 628 630 631 631 632 634 636 638 640 642 645 646 649 651 655 659 663 666 669 671 674 676 677 678 680 683 686 689 691 694 696 699 701 703 705 707 710 711 713 715 716 718 719 720 722 723 724 725 726 727 728 730 730 732 733 734 735 735 735
615 616 617 618 620 621 623 625 626 628 630 632 632 632 633 634 637 640 642 644 647 649 651 654 657 661 665 668 670 673 675 676 677 679 681 684 686 689 691 694 696 699 701 703 705 707 709 711 713 714 715 717 718 719 720 722 724 725 726 727 728 729 730 730 731 732 732 733 734
615 615 617 619 620 622 624 626 627 630 632 635 636 636 635 637 640 641 643 646 649 651 653 656 659 663 666 670 672 675 676 677 678 680 682 685 687 690 692 695 697 700 701 703 705 706 708 710 711 713 715 716 717 719 720 722 724 725 726 727 728 728 729 730 730 731 732 733 734
614 616 617 619 621 623 625 627 630 632 635 637 638 637 637 639 641 643 646 649 651 654 656 658 661 665 669 671 674 675 677 678 680 682 684 686 688 691 694 696 698 700 702 703 705 706 708 709 710 712 714 716 717 719 720 722 723 724 725 726 727 728 728 729 730 730 732 733 734
615 616 618 620 622 624 627 629 632 634 636 636 636 637 639 641 644 647 650 652 655 657 659 660 663 667 670 672 673 675 677 679 681 683 685 687 689 692 695 697 699 701 703 704 705 706 707 709 710 712 714 715 717 719 720 721 723 724 725 725 726 727 727 728 730 731 732 733 733
615 617 619 621 623 626 628 631 633 634 635 636 638 640 642 645 648 651 654 656 658 660 662 664 665 668 670 672 673 675 677 679 681 684 686 688 690 693 695 698 700 702 703 704 705 705 706 708 710 711 713 715 716 718 720 721 722 723 724 725 726 726 727 728 730 731 732 732 732
616 618 620 622 625 627 629 631 633 634 636 637 639 641 644 647 651 654 657 660 661 663 664 665 665 667 670 671 673 675 678 680 683 685 687 689 691 694 696 699 701 703 704 704 704 705 706 708 710 711 713 714 716 718 719 720 721 722 724 725 726 727 728 729 729 730 730 730 731
618 620 622 624 626 628 630 632 633 635 636 638 640 643 646 649 653 656 660 662 663 664 664 664 665 667 670 672 674 676 680 682 685 687 689 691 693 694 697 700 702 704 705 705 705 706 707 709 710 711 713 714 716 717 719 720 721 723 724 725 726 727 728 728 729 729 730 730 731
620 622 624 626 628 630 631 633 635 636 638 640 643 646 649 652 655 659 662 664 663 663 664 665 666 669 671 674 676 679 682 685 687 689 691 693 694 695 697 701 704 705 706 706 706 707 709 710 711 712 713 714 716 717 719 720 721 723 724 725 726 727 728 729 729 730 731 731 732
621 623 625 627 629 631 633 635 637 639 642 645 648 650 653 655 659 662 664 664 663 663 665 667 669 671 674 677 680 683 685 687 689 691 693 694 695 696 699 701 704 706 707 708 708 709 710 711 712 713 713 714 715 717 719 720 722 723 725 726 727 728 729 730 731 732 733 733 733
623 624 626 628 630 632 634 636 639 643 646 649 652 654 656 658 662 664 665 664 663 665 668 670 673 675 678 681 684 686 688 690 691 693 694 695 695 697 699 702 705 707 708 709 710 711 712 713 713 714 714 715 716 718 719 721 723 725 726 727 729 731 732 733 733 734 734 734 735
626 626 627 629 631 633 635 638 641 645 649 652 655 656 658 660 663 665 666 665 664 667 670 673 676 679 681 683 686 689 691 693 693 694 695 696 697 698 700 703 706 708 710 711 711 712 713 714 714 715 715 716 717 719 720 722 725 726 728 730 731 733 734 735 735 735 735 735 736
629 630 630 631 633 634 636 639 642 646 650 654 656 658 659 660 664 666 667 666 666 668 672 675 679 681 684 685 687 690 693 695 695 695 696 698 699 700 701 703 706 709 711 712 713 713 714 715 715 716 716 717 719 720 722 724 726 728 730 732 733 735 735 735 735 736 736 737 738
631 632 634 635 636 637 639 641 644 647 650 654 656 658 660 661 664 666 667 668 669 671 674 678 681 684 685 686 688 691 693 695 696 696 697 699 701 702 703 705 708 710 712 713 714 715 715 716 717 717 718 719 720 722 724 725 727 730 731 733 734 735 736 736 737 737 738 739 740
634 636 637 639 640 641 643 645 647 649 651 654 657 659 661 663 665 667 668 670 672 674 677 680 683 685 687 688 690 692 694 696 697 698 700 701 703 704 705 707 710 712 714 715 716 716 717 718 719 719 720 720 722 723 725 726 728 730 733 734 735 735 737 738 738 739 740 741 742